This demonstration page uses our WeatherBlox Daily Observations layout. Learn more.

Left ArrowRight Arrow

Hourly Observations for August 2, 2015

Temp ( °F °C ) Dew Point ( °F °C ) Humidity (%) Winds ( mph kmh ) Pressure ( in mb ) Visibility ( mi km ) Precip ( " mm )
12:51 am 00:51 Clear 83 28.3 57 13.9 41 41 NW 5 7 29.80 1009 10 16 0.00 0.00
1:51 am 01:51 Mostly Clear 79 26.1 62 16.7 56 56 WSW 8 13 29.80 1009 10 16 0.00 0.00
2:00 am 02:00 Mostly Clear with Nearby Thunderstorms 78 25.6 63 17.2 60 60 W 9 15 29.80 1009 10 16 0.00 0.00
2:15 am 02:15 Mostly Clear 79 26 63 17 58 58 W 13 20 29.80 1009 10 16 0.00 0.00
2:25 am 02:25 Clear with Nearby Thunderstorms 79 26 63 17 58 58 W 13 20 29.80 1009 10 16 0.00 0.00
2:51 am 02:51 Mostly Clear with Nearby Thunderstorms 79 26.1 61 16.1 54 54 NNE 5 7 29.81 1010 10 16 0.00 0.00
3:13 am 03:13 Mostly Clear 76 24.4 61 16.1 60 60 WSW 9 15 29.47 998 10 16 0.00 0.00
3:51 am 03:51 Clear 74 23.3 65 18.3 74 74 WNW 6 9 29.81 1009 10 16 0.00 0.03
4:51 am 04:51 Mostly Clear 76 24.4 63 17.2 64 64 NW 3 6 29.90 1013 10 16 0.00 0.00
5:51 am 05:51 Sunny 75 23.9 63 17.2 66 66 NNW 5 7 29.83 1010 10 16 0.00 0.00
6:51 am 06:51 Sunny 77 25 63 17.2 62 62 WSW 5 7 29.85 1011 10 16 0.00 0.00
7:51 am 07:51 Sunny 79 26.1 64 17.8 60 60 W 3 6 29.86 1011 10 16 0.00 0.00
8:51 am 08:51 Sunny 83 28.3 62 16.7 49 49 Calm 29.86 1011 10 16 0.00 0.00
9:51 am 09:51 Sunny 85 29.4 61 16.1 45 45 VRB 6 9 29.85 1011 10 16 0.00 0.00
10:51 am 10:51 Sunny 88 31.1 60 15.6 39 39 Calm 29.83 1010 10 16 0.00 0.00
11:51 am 11:51 Sunny 93 33.9 58 14.4 31 31 VRB 3 6 29.80 1009 10 16 0.00 0.00
12:35 pm 12:35 Sunny with Nearby Thunderstorms 91 32.8 58 14.4 33 33 WSW 12 19 29.68 1005 10 16 0.00 0.00
12:51 pm 12:51 Sunny with Nearby Thunderstorms 88 31.1 58 14.4 36 36 SW 14 22 29.80 1009 10 16 0.00 0.00
1:10 pm 13:10 Sunny 88 31.1 59 15 38 38 WSW 13 20 29.71 1006 10 16 0.00 0.00
1:19 pm 13:19 Sunny with Nearby Thunderstorms 89 31.7 59 15 36 36 WSW 14 22 29.71 1006 10 16 0.00 0.00
1:34 pm 13:34 Sunny 93 33.9 58 14.4 31 31 W 7 11 29.68 1005 10 16 0.00 0.00
1:51 pm 13:51 Sunny 95 35 55 12.8 26 26 WNW 6 9 29.76 1008 10 16 0.00 0.00
2:51 pm 14:51 Sunny 95 35 53 11.7 24 24 VRB 3 6 29.73 1007 10 16 0.00 0.00
3:51 pm 15:51 Sunny 98 36.7 54 12.2 23 23 W 12 19 29.71 1006 10 16 0.00 0.00
4:51 pm 16:51 Mostly Sunny 97 36.1 53 11.7 23 23 WNW 9 15 29.69 1005 10 16 0.00 0.00
5:51 pm 17:51 Partly Cloudy 95 35 53 11.7 24 24 W 7 11 29.67 1005 10 16 0.00 0.00
6:19 pm 18:19 Partly Cloudy with Nearby Thunderstorms 95 35 52 11.1 23 23 NW 13 20 29.56 1001 10 16 0.00 0.00
6:37 pm 18:37 Mostly Cloudy with Thunderstorms 92 33.3 54 12.2 28 28 W 22 35 29.62 1003 10 16 0.00 0.00
6:51 pm 18:51 Partly Cloudy with Thunderstorms 91 32.8 55 12.8 30 30 W 23 37 29.69 1006 10 16 0.00 0.00
7:10 pm 19:10 Mostly Cloudy with Thunderstorms 82 27.8 61 16.1 49 49 NE 14 22 29.68 1005 5 8 0.01 0.25
7:20 pm 19:20 Mostly Cloudy with Nearby Thunderstorms 87 30.6 57 13.9 36 36 N 10 17 29.65 1004 10 16 0.01 0.25
7:27 pm 19:27 Mostly Cloudy with Thunderstorms 87 30.6 58 14.4 37 37 NNE 9 15 29.65 1004 10 16 0.01 0.25
7:42 pm 19:42 Mostly Cloudy with Nearby Thunderstorms 86 30 59 15 40 40 VRB 3 6 29.68 1005 10 16 0.00 0.00
7:51 pm 19:51 Mostly Clear with Nearby Thunderstorms 86 30 57 13.9 37 37 NNE 5 7 29.73 1007 10 16 0.01 0.25
8:24 pm 20:24 Clear 86 30 54 12 33 33 NE 22 35 29.68 1005 10 16 0.00 0.00
8:51 pm 20:51 Clear 84 28.9 57 13.9 40 40 NE 10 17 29.73 1007 10 16 0.00 0.00
9:51 pm 21:51 Clear 79 26.1 61 16.1 54 54 W 6 9 29.76 1008 10 16 0.00 0.00
10:51 pm 22:51 Clear 82 27.8 67 19.4 60 60 S 5 7 29.85 1011 10 16 0.00 0.00
11:51 pm 23:51 Clear 77 25 61 16.1 58 58 NE 6 9 29.77 1008 10 16 0.00 0.00

Powered by AerisWeather